Location: Lake Arresoe
(56.0000°N, 12.5000°E)
Time: 09:41:41
(UTC+02:00)

Resurs 1-4 Rocket - Visible Passes

Search period start: 14 August 2020 00:00
Search period end: 24 August 2020 00:00
Orbit: 799 x 814 km, 98.6° (Epoch: 13 August)

Date Brightness Start Highest point End Pass type
(mag) Time Alt. Az. Time Alt. Az. Time Alt. Az.
14 Aug 3.1 02:17:33 10° NNE 02:22:29 38° E 02:25:32 21° SSE visible
14 Aug 2.6 03:57:24 10° N 04:02:27 46° WNW 04:06:36 15° SW visible
15 Aug 3.6 01:53:14 10° NE 01:57:38 26° E 02:00:32 17° SE visible
15 Aug 2.2 03:32:41 10° NNE 03:37:56 67° WNW 03:41:36 20° SW visible
16 Aug 4.1 01:29:10 10° NE 01:32:41 18° E 01:35:32 12° ESE visible
16 Aug 2.1 03:08:01 10° NNE 03:13:20 85° ESE 03:16:36 24° SSW visible
16 Aug 3.6 04:48:30 10° N 04:52:38 24° NW 04:56:44 10° WSW visible
17 Aug 4.4 01:05:50 10° ENE 01:07:39 12° E 01:09:27 10° E visible
17 Aug 2.5 02:43:26 10° NNE 02:48:39 58° ESE 02:51:36 25° S visible
17 Aug 3.1 04:23:37 10° N 04:28:16 32° WNW 04:32:40 11° WSW visible
18 Aug 3.0 02:18:57 10° NNE 02:23:53 39° E 02:26:36 23° SSE visible
18 Aug 2.7 03:58:49 10° N 04:03:50 45° WNW 04:07:41 16° SW visible
19 Aug 3.6 01:54:36 10° NE 01:59:02 27° E 02:01:36 19° SE visible
19 Aug 2.2 03:34:05 10° NNE 03:39:19 65° WNW 03:42:41 22° SW visible
20 Aug 4.1 01:30:31 10° NE 01:34:06 18° E 01:36:36 14° ESE visible
20 Aug 2.1 03:09:24 10° NNE 03:14:44 87° ESE 03:17:41 27° SSW visible
20 Aug 3.6 04:49:55 10° N 04:54:00 23° NW 04:58:05 10° WSW visible
21 Aug 4.4 01:07:06 10° ENE 01:09:04 12° E 01:11:02 10° ESE visible
21 Aug 2.4 02:44:49 10° NNE 02:50:03 59° ESE 02:52:41 29° S visible
21 Aug 3.2 04:25:02 10° N 04:29:39 32° WNW 04:33:45 12° WSW visible
22 Aug 3.0 02:20:20 10° NNE 02:25:18 40° E 02:27:41 26° SSE visible
22 Aug 2.7 04:00:14 10° N 04:05:13 44° WNW 04:08:45 18° SW visible
23 Aug 3.6 01:55:59 10° NE 02:00:27 27° E 02:02:41 20° SE visible
23 Aug 2.2 03:35:29 10° NNE 03:40:43 64° WNW 03:43:45 25° SW visible
23 Aug 3.9 05:16:22 10° N 05:19:40 17° NW 05:22:57 10° W visible
